This demonstration page uses our WeatherBlox Daily Observations layout. Learn more.

Hourly Observations for October 2, 2019

Temp ( °F °C ) Dew Point ( °F °C ) Humidity (%) Winds ( mph kmh ) Pressure ( in mb ) Visibility ( mi km ) Precip ( " mm )
12:15 am 00:15 Cloudy 48 9 48 8.8 99 99 NNE 14 22 30.03 1017 10 16.09344 0 0
12:35 am 00:35 Cloudy 48 9.1 48 9 99 99 N 8 13 30.03 1017 10 16.09344 0 0
12:55 am 00:55 Cloudy 48 9.1 48 9 99 99 NNE 12 19 30.03 1017 10 16.09344 0 0
1:15 am 01:15 Cloudy 49 9.2 48 9.1 99 99 NNE 13 20 30 1016 10 16.09344 0 0
1:35 am 01:35 Cloudy 49 9.2 48 9 99 99 NNE 12 19 29.97 1015 10 16.09344 0 0
1:55 am 01:55 Cloudy 49 9.3 48 9 98 98 NNE 10 17 29.97 1015 10 16.09344 0 0
2:15 am 02:15 Cloudy 49 9.3 48 9 98 98 NE 9 15 30 1016 10 16.09344 0 0
2:35 am 02:35 Cloudy 49 9.5 48 9.1 97 97 NE 14 22 30 1016 10 16.09344 0 0
2:55 am 02:55 Cloudy 49 9.2 48 9 99 99 NE 13 20 30 1016 10 16.09344 0 0
3:15 am 03:15 Cloudy 49 9.2 48 9.1 99 99 NE 13 20 29.97 1015 10 16.09344 0 0
3:35 am 03:35 Cloudy 49 9.2 48 9.1 99 99 NE 14 22 29.97 1015 10 16.09344 0 0
3:55 am 03:55 Cloudy 48 9.1 48 9.1 100 100 NE 12 19 29.97 1015 10 16.09344 0 0
4:15 am 04:15 Cloudy 48 9.1 48 9.1 100 100 NE 12 19 29.97 1015 10 16.09344 0 0
4:35 am 04:35 Cloudy with Light Rain 49 9.2 49 9.2 100 100 ENE 8 13 29.97 1015 10 16.09344 0 0
4:55 am 04:55 Cloudy 49 9.2 49 9.2 100 100 NE 9 15 29.97 1015 10 16.09344 0 0
5:15 am 05:15 Cloudy 48 9.1 48 9.1 100 100 N 3 6 30.03 1017 7 11.265408 0 0
5:35 am 05:35 Cloudy with Drizzle 48 9.1 48 9.1 100 100 NNE 6 9 30.03 1017 3 4.828032 0.01 0.254
5:55 am 05:55 Cloudy with Mist and Fog 48 9.1 48 9.1 100 100 N 5 7 29.97 1015 5 8.04672 0.01 0.254
6:15 am 06:15 Cloudy with Mist and Fog 48 9 48 9 100 100 NNE 7 11 30.03 1017 5 8.04672 0 0
6:35 am 06:35 Cloudy with Light Rain 48 9 48 9 100 100 NNE 6 9 30.03 1017 5 8.04672 0.01 0.254
6:55 am 06:55 Cloudy with Mist and Fog 48 9 48 9 100 100 NE 7 11 30.03 1017 3 4.828032 0.01 0.254
7:15 am 07:15 Cloudy with Mist and Fog 48 8.8 48 8.8 100 100 N 7 11 30.03 1017 4 6.437376 0 0
7:35 am 07:35 Cloudy with Light Rain 48 8.8 48 8.8 100 100 N 6 9 30.03 1017 4 6.437376 0 0
7:55 am 07:55 Cloudy with Light Drizzle 48 8.7 48 8.7 100 100 N 9 15 30.03 1017 4 6.437376 0 0
8:15 am 08:15 Cloudy with Mist and Fog 47 8.6 47 8.6 100 100 N 7 11 30.03 1017 5 8.04672 0 0
8:35 am 08:35 Cloudy with Mist and Fog 47 8.6 47 8.6 100 100 NNE 6 9 30 1016 4 6.437376 0 0
8:55 am 08:55 Cloudy with Mist and Fog 48 8.7 48 8.7 100 100 NNE 9 15 30.03 1017 5 8.04672 0.01 0.254
9:15 am 09:15 Cloudy 48 8.8 48 8.8 100 100 N 8 13 30.03 1017 10 16.09344 0 0
9:35 am 09:35 Cloudy with Mist and Fog 48 8.8 48 8.8 100 100 NNE 7 11 30.03 1017 4 6.437376 0 0
9:55 am 09:55 Cloudy with Light Drizzle 48 8.9 48 8.9 100 100 N 8 13 30.03 1017 2 3.218688 0 0
10:15 am 10:15 Cloudy with Mist and Fog 48 9 48 9 100 100 N 8 13 30.03 1017 2.5 4.02336 0 0
10:35 am 10:35 Cloudy with Mist and Fog 49 9.2 49 9.2 100 100 N 8 13 30 1016 3 4.828032 0 0
10:55 am 10:55 Cloudy 49 9.5 49 9.5 100 100 N 9 15 30 1016 7 11.265408 0 0
11:15 am 11:15 Cloudy with Mist and Fog 49 9.3 49 9.2 99 99 N 9 15 30 1016 1.75 2.816352 0 0
11:35 am 11:35 Cloudy 49 9.5 49 9.4 99 99 N 7 11 30.03 1017 7 11.265408 0 0
11:55 am 11:55 Cloudy with Rain 49 9.5 49 9.2 98 98 N 6 9 30.03 1017 7 11.265408 0 0
12:15 pm 12:15 Cloudy with Light Drizzle 49 9.7 49 9.6 99 99 N 6 9 30.03 1017 2.5 4.02336 0 0
12:35 pm 12:35 Cloudy with Mist and Fog 50 9.8 49 9.6 99 99 N 6 9 30.03 1017 4 6.437376 0 0
12:55 pm 12:55 Cloudy 50 10.1 49 9.7 97 97 N 5 7 30.03 1017 10 16.09344 0.01 0.254
1:15 pm 13:15 Cloudy 50 10 49 9.5 97 97 NNW 6 9 30.03 1017 10 16.09344 0 0
1:35 pm 13:35 Cloudy 51 10.5 49 9.6 94 94 NNW 7 11 30.03 1017 10 16.09344 0 0
1:55 pm 13:55 Cloudy 51 10.6 50 9.8 95 95 NNW 7 11 30 1016 10 16.09344 0 0
2:15 pm 14:15 Cloudy 51 10.6 49 9.6 94 94 NNW 7 11 30 1016 10 16.09344 0 0
2:35 pm 14:35 Cloudy 51 10.8 49 9.6 92 92 N 7 11 30 1016 10 16.09344 0 0
2:55 pm 14:55 Cloudy 53 11.7 50 9.8 88 88 NNW 7 11 30 1016 10 16.09344 0 0
3:15 pm 15:15 Cloudy 53 11.5 49 9.6 88 88 NNW 7 11 30 1016 10 16.09344 0 0
3:35 pm 15:35 Cloudy 52 11.3 49 9.6 89 89 NNW 7 11 30 1016 10 16.09344 0 0
3:55 pm 15:55 Cloudy 53 11.5 49 9.6 88 88 NNW 7 11 30 1016 10 16.09344 0 0
4:15 pm 16:15 Cloudy 53 11.6 50 9.8 89 89 NW 3 6 30.03 1017 10 16.09344 0 0
4:35 pm 16:35 Cloudy 54 12 49 9.4 84 84 NW 7 11 30 1016 10 16.09344 0 0
4:55 pm 16:55 Cloudy 54 12 49 9.5 85 85 NNW 7 11 30.03 1017 10 16.09344 0 0
5:15 pm 17:15 Cloudy 53 11.8 49 9.2 84 84 NNW 7 11 30.03 1017 10 16.09344 0 0
5:35 pm 17:35 Cloudy 53 11.9 49 9.3 84 84 NW 9 15 30.03 1017 10 16.09344 0 0
5:55 pm 17:55 Cloudy 54 12 49 9.5 85 85 NNW 7 11 30.03 1017 10 16.09344 0 0
6:15 pm 18:15 Cloudy 53 11.5 48 8.9 84 84 NNW 7 11 30.03 1017 10 16.09344 0 0
6:35 pm 18:35 Cloudy 53 11.5 48 8.8 84 84 NW 8 13 30.06 1018 10 16.09344 0 0
6:55 pm 18:55 Cloudy 52 11.3 48 8.8 85 85 NNW 6 9 30.06 1018 10 16.09344 0 0
7:15 pm 19:15 Cloudy 52 11.1 48 8.8 86 86 N 8 13 30.06 1018 10 16.09344 0 0
7:35 pm 19:35 Cloudy 52 11 47 8.6 85 85 N 9 15 30.06 1018 10 16.09344 0 0
7:55 pm 19:55 Cloudy 51 10.8 46 7.9 82 82 NNW 10 17 30.09 1019 10 16.09344 0 0
8:15 pm 20:15 Cloudy 51 10.7 47 8.1 84 84 N 7 11 30.09 1019 10 16.09344 0 0
8:35 pm 20:35 Cloudy 51 10.5 47 8.3 86 86 N 5 7 30.09 1019 10 16.09344 0 0
8:55 pm 20:55 Cloudy 51 10.3 47 8.2 87 87 N 7 11 30.15 1021 10 16.09344 0 0
9:15 pm 21:15 Cloudy 51 10.3 46 8 86 86 N 8 13 30.15 1021 10 16.09344 0 0
9:35 pm 21:35 Cloudy 51 10.3 46 7.5 83 83 N 8 13 30.15 1021 10 16.09344 0 0
9:55 pm 21:55 Cloudy 51 10.4 45 7.4 82 82 N 8 13 30.12 1020 10 16.09344 0 0
10:15 pm 22:15 Partly Cloudy 49 9.3 45 7 86 86 N 5 7 30.15 1021 10 16.09344 0 0
10:35 pm 22:35 Clear 47 8.2 45 7 92 92 N 6 9 30.15 1021 10 16.09344 0 0
10:55 pm 22:55 Clear 46 7.7 44 6.8 94 94 Calm 30.15 1021 10 16.09344 0 0
11:15 pm 23:15 Clear 45 7.3 44 6.6 95 95 Calm 30.15 1021 10 16.09344 0 0
11:35 pm 23:35 Clear 45 7.1 44 6.6 97 97 Calm 30.15 1021 10 16.09344 0 0
11:55 pm 23:55 Clear 44 6.4 43 6 97 97 Calm 30.21 1023 10 16.09344 0 0

Powered by AerisWeather